Regional Weather Roundup
Issued by NWS Sioux Falls, SD

Home | Current Version | Previous Version | Text Only | Print | Product List | Glossary Off
Versions: 1 2 3 4 5 6 7 8 9 10 11 12 13 14 15 16 17 18 19 20 21 22 23 24 25 26 27 28 29 30 31 32 33 34 35 36 37 38 39 40 41 42 43 44 45 46 47 48 49 50

000
ASUS43 KFSD 280002
RWRFSD

WEATHER ROUNDUP FOR SE SOUTH DAKOTA/SW MINNESOTA/NW IOWA
NATIONAL WEATHER SERVICE SIOUX FALLS SD
700 PM CDT WED MAY 27 2015

NOTE: "FAIR" INDICATES FEW OR NO CLOUDS BELOW 12,000 FEET WITH NO
SIGNIFICANT WEATHER AND OR OBSTRUCTIONS TO VISIBILITY.


SDZ038>040-050-052>070-280100-
SOUTHEAST SOUTH DAKOTA

CITY           SKY/WX    TMP DP  RH WIND       PRES   REMARKS
BROOKINGS      CLOUDY    81  46  30 S3        29.98F
CHAMBERLAIN    NOT AVBL
HURON            N/A    N/A N/A N/A MISG      29.95S
MADISON        FAIR      79  48  34 SW10      29.99F
MITCHELL       CLOUDY    82  51  34 S9        29.96F
6HR MIN TEMP:  79; 6HR MAX TEMP:  83;

SIOUX FALLS    PTSUNNY   79  51  37 S8        29.98F
6HR MIN TEMP:  78; 6HR MAX TEMP:  83;

WINNER         FAIR      78  48  34 S16G26    29.95S
YANKTON        MOSUNNY   81  48  32 S10       29.96F
$$

MNZ071-072-080-081-089-090-097-098-280100-
SOUTHWEST MINNESOTA

CITY           SKY/WX    TMP DP  RH WIND       PRES   REMARKS
FAIRMONT       MOSUNNY   84  43  23 CALM      29.99F
JACKSON        MOSUNNY   81  50  34 S5        30.01S
LUVERNE        PTSUNNY   81  45  28 SW9       29.99F
MARSHALL       MOSUNNY   82  46  28 CALM      29.96F
6HR MIN TEMP:  79; 6HR MAX TEMP:  84;

MONTEVIDEO     MOSUNNY   84  48  28 CALM      29.96F
REDWOOD FALLS  MOSUNNY   83  47  28 CALM      29.96S
TRACY          MOSUNNY   84  43  24 CALM      29.98F
WINDOM         MOSUNNY   82  45  26 CALM      29.99F
WORTHINGTON    CLOUDY    81  48  32 CALM      30.00F
$$

IAZ001>003-012>014-020>022-031-032-NEZ013-014-SDZ071-280100-
NORTHWEST IOWA

CITY           SKY/WX    TMP DP  RH WIND       PRES   REMARKS
DENISON        MOSUNNY   81  52  36 CALM      30.01F
ESTHERVILLE    PTSUNNY   80  52  37 SW3       29.99F
SIOUX CITY     SUNNY     82  50  32 S9        29.99F
6HR MIN TEMP:  79; 6HR MAX TEMP:  85;

SPENCER        SUNNY     83  48  29 SW10      30.00F
6HR MIN TEMP:  80; 6HR MAX TEMP:  86;

$$

ABBREVIATIONS USED IN REMARKS
   TC - TEMPERATURE IN CELSIUS
  WCI - WIND CHILL INDEX
   HX - HEAT INDEX
  VSB - VISIBILITY




USA.gov is the U.S. government's official web portal to all federal, state and local government web resources and services.